Location: Unspecified
(0.0000°N, 0.0000°E)
Time: 21:28:43
(UTC+02:00)

Meteor PRIRODA - Visible Passes

Search period start: 16 September 2014 00:00
Search period end: 26 September 2014 00:00
Orbit: 511 x 532 km, 97.3° (Epoch: 15 September)

Date Brightness Start Highest point End Pass type
(mag) Time Alt. Az. Time Alt. Az. Time Alt. Az.
16 Sep 4.4 06:33:25 10° NNE 06:37:11 57° E 06:40:56 10° S visible
17 Sep 5.4 06:20:48 10° NE 06:24:18 34° E 06:27:47 10° SSE visible
18 Sep 6.2 06:08:26 10° NE 06:11:24 22° E 06:14:22 10° SSE visible
19 Sep 6.9 05:56:30 10° ENE 05:58:31 14° ESE 06:00:31 10° SE visible
20 Sep 4.7 07:16:17 10° NNW 07:19:32 27° W 07:22:46 10° SW visible
21 Sep 4.0 07:03:00 10° N 07:06:37 43° W 07:10:14 10° SSW visible
22 Sep 3.6 06:49:54 10° N 06:53:42 73° W 06:57:29 10° SSW visible
23 Sep 4.0 06:36:59 10° NNE 06:40:46 67° E 06:44:32 10° S visible
24 Sep 5.1 06:24:15 10° NNE 06:27:50 40° E 06:31:23 10° S visible
25 Sep 6.0 06:11:44 10° NE 06:14:53 25° E 06:18:01 10° SSE visible
